Regional Weather Roundup
Issued by NWS

Home | Current Version | Previous Version | Text Only | Print | Product List | Glossary On
Versions: 1 2 3 4 5 6 7 8 9 10 11 12 13 14 15 16 17 18 19 20 21 22 23 24 25 26 27
000
ASCA42 TJSJ 181410
RWRPR
PUERTO RICO/U.S. VIRGIN ISLANDS HOURLY WEATHER ROUNDUP
NATIONAL WEATHER SERVICE SAN JUAN PR
1000 AM AST SAT NOV 18 2017

PRZ001>002-007>008-010-181500-
PUERTO RICO

CITY           SKY/WX    TMP DP  RH WIND       PRES   REMARKS
SAN JUAN LMM   MOSUNNY   81  79  94 SE3       29.84R
AGUADILLA      PTSUNNY   77  73  88 CALM      29.85S
$$

VIZ001>002-181500-
U.S. VIRGIN ISLANDS

CITY           SKY/WX    TMP DP  RH WIND       PRES   REMARKS
CHARLOTTE AMA    N/A    N/A N/A N/A MISG      29.86R
$$

HOURLY WEATHER ROUNDUP FOR THE NEWS MEDIA

CITY           SKY/WX    TMP DP  RH WIND       PRES   REMARKS
ORLANDO        SUNNY     68  61  78 NE3       30.06S
NEW YORK       CLOUDY    46  31  55 SW18      29.97F
NEWARK         CLOUDY    37  24  59 CALM      29.95F
CHICAGO        LGT RAIN  43  39  86 N16       29.47R
HARTFORD       CLOUDY    36  26  67 CALM      29.96F
BOSTON         MOSUNNY   37  19  48 S5        29.95F WCI  33
DALLAS         PTSUNNY   70  64  81 SW6       29.76R
PHILADELPHIA   CLOUDY    44  36  73 S9        29.93F
LOS ANGELES    PTCLDY    59  55  87 VRB5      30.12R
WASHINGTON DC  CLOUDY    45  35  68 S13       29.85F



USA.gov is the U.S. government's official web portal to all federal, state and local government web resources and services.